Cortez, CO

12:18 AM MST on November 22, 2017 (GMT -0700)
Cortez Municipal

Weather History for KCEZ - March, 2012

Change the Weather History Date:

Friday, March 30, 2012

  Actual Average Record
Temperature  
Mean Temperature 50 °F 43 °F  
Max Temperature 71 °F 59 °F 76 °F (2015)
Min Temperature 29 °F 26 °F 12 °F (1997)
Degree Days  
Heating Degree Days 15 22  
Month to date heating degree days 719 779  
Since 1 July heating degree days 5253 5509  
Cooling Degree Days 0 0  
Month to date cooling degree days 0 0  
Year to date cooling degree days 0 0  
Moisture  
Dew Point 21 °F    
Average Humidity 41    
Maximum Humidity 69    
Minimum Humidity 12    
Precipitation  
Precipitation 0.00 in 0.04 in 0.11 in (2005)
Month to date precipitation 0.33 1.15  
Year to date precipitation 2.21 3.04  
Sea Level Pressure  
Sea Level Pressure 29.94 in    
Wind  
Wind Speed 7 mph (NE)    
Max Wind Speed 20 mph    
Max Gust Speed 30 mph    
Visibility 10 miles    
Events      
T = Trace of Precipitation, MM = Missing Value Source: NWS Daily Summary

Daily Weather History Graph

Daily Weather History Graph

Search for Another Location

Airport or City:

Trip Planner

Search our weather history database for the weather conditions in past years. The results will help you decide how hot, cold, wet, or windy it might be!

Date:

Astronomy

Mar. 30, 2012 Rise Set
Actual Time 7:02 AM MDT 7:35 PM MDT
Civil Twilight 6:36 AM MDT 8:02 PM MDT
Nautical Twilight 6:05 AM MDT 8:33 PM MDT
Astronomical Twilight 5:33 AM MDT 9:04 PM MDT
Moon 12:16 PM MDT (3/30) 2:08 AM MDT (3/30)
Length of Visible Light 13h 26m
Length of Day
12h 33m
Waxing Crescent, 49% of the Moon is Illuminated
Mar 30
Waxing Crescent
Mar 30
First Quarter
Apr 6
Full
Apr 13
Last Quarter
Apr 21
New

Hourly Weather History & Observations

Time (MDT) Temp. Windchill Dew Point Humidity Pressure Visibility Wind Dir Wind Speed Gust Speed Precip Events Conditions
12:53 AM 35.1 °F 29.3 °F 21.0 °F 57% 29.96 in 10.0 mi NE 6.9 mph - N/A   Clear
1:53 AM 35.1 °F 29.3 °F 21.0 °F 57% 29.96 in 10.0 mi East 6.9 mph - N/A   Clear
2:53 AM 35.1 °F 30.1 °F 23.0 °F 61% 29.95 in 10.0 mi NE 5.8 mph - N/A   Clear
3:53 AM 34.0 °F 28.8 °F 21.9 °F 61% 29.93 in 10.0 mi NE 5.8 mph - N/A   Clear
4:53 AM 34.0 °F 28.8 °F 21.9 °F 61% 29.93 in 10.0 mi East 5.8 mph - N/A   Clear
5:53 AM 30.9 °F 24.3 °F 21.0 °F 67% 29.96 in 10.0 mi ENE 6.9 mph - N/A   Clear
6:53 AM 30.9 °F 26.2 °F 19.9 °F 64% 29.99 in 10.0 mi East 4.6 mph - N/A   Clear
7:53 AM 37.0 °F 33.3 °F 23.0 °F 57% 30.02 in 10.0 mi ENE 4.6 mph - N/A   Clear
8:53 AM 44.1 °F - 24.1 °F 45% 30.01 in 10.0 mi Calm Calm - N/A   Clear
9:53 AM 55.0 °F - 25.0 °F 31% 29.98 in 10.0 mi NE 3.5 mph - N/A   Clear
10:53 AM 61.0 °F - 24.1 °F 24% 29.96 in 10.0 mi Calm Calm - N/A   Clear
12:53 PM 66.0 °F - 24.1 °F 20% 29.95 in 10.0 mi SW 9.2 mph 17.3 mph N/A   Clear
1:53 PM 69.1 °F - 21.0 °F 16% 29.93 in 10.0 mi West 11.5 mph 29.9 mph N/A   Clear
2:53 PM 69.1 °F - 17.1 °F 14% 29.90 in 10.0 mi West 17.3 mph 23.0 mph N/A   Clear
3:53 PM 70.0 °F - 19.0 °F 14% 29.89 in 10.0 mi WNW 13.8 mph - N/A   Clear
4:53 PM 68.0 °F - 16.0 °F 14% 29.89 in 10.0 mi WNW 12.7 mph 23.0 mph N/A   Clear
5:53 PM 69.1 °F - 15.1 °F 13% 29.90 in 10.0 mi NW 11.5 mph - N/A   Clear
6:53 PM 66.9 °F - 15.1 °F 14% 29.91 in 10.0 mi WNW 9.2 mph - N/A   Clear
7:53 PM 55.0 °F - 19.0 °F 24% 29.93 in 10.0 mi SSW 4.6 mph - N/A   Clear
8:53 PM 48.0 °F - 21.9 °F 36% 29.95 in 10.0 mi ENE 8.1 mph - N/A   Clear
9:53 PM 45.0 °F 41.8 °F 21.0 °F 39% 29.94 in 10.0 mi ENE 5.8 mph - N/A   Clear
10:53 PM 42.1 °F 37.7 °F 21.0 °F 43% 29.93 in 10.0 mi NNE 6.9 mph - N/A   Clear
11:53 PM 39.0 °F 35.7 °F 21.0 °F 49% 29.93 in 10.0 mi East 4.6 mph - N/A   Clear